Regional Weather Roundup
Issued by NWS State College, PA

Home | Current Version | Previous Version | Text Only | Print | Product List | Glossary Off
Versions: 1 2 3 4 5 6 7 8 9 10 11 12 13 14 15 16 17 18 19 20 21 22 23 24 25 26 27 28 29 30 31 32 33 34 35 36 37 38 39 40 41 42 43 44 45 46 47 48 49 50

000
ASUS41 KCTP 011503
RWRCTP

REGIONAL WEATHER ROUNDUP
NATIONAL WEATHER SERVICE STATE COLLEGE PA
1100 AM EDT WED OCT 01 2014

Note: "fair" indicates few or no clouds below 12,000 feet with no
significant weather and/or obstructions to visibility.

* = STATION THAT DOES NOT REPORT PRECIPITATION /E.G. RAIN...SNOW...ETC/
    THUNDER OR FOG.

PAZ002>004-007>009-013>016-020>023-029>032-011600-
WESTERN PENNSYLVANIA

CITY           SKY/WX    TMP DP  RH WIND       PRES   REMARKS
ERIE           MOSUNNY   66  56  70 CALM      30.05R
MEADVILLE      CLOUDY    59  55  87 E7        30.06R
FRANKLIN*      CLOUDY    55  52  88 E5        30.08R VSB 3/4
NEW CASTLE       N/A     57  57 100 CALM      30.07R
BEAVER COUNTY  CLOUDY    57  54  88 CALM      30.06R FOG
BUTLER*        CLOUDY    54  52  94 CALM      30.08R
PITTSBURGH INT CLOUDY    56  55  97 SW3       30.05R FOG
PITTSBURGH     FOG       57  54  89 CALM      30.05R VSB 3/4
INDIANA*       SUNNY     66  55  68 VRB5      30.08F
LATROBE        MOSUNNY   64  59  82 CALM      30.05R
WASHINGTON CO* CLOUDY    57  55  94 CALM      30.07R
$$

PAZ004>006-010>012-017>019-024>028-033>037-041-042-045-046-049>053-011600-
CENTRAL PENNSYLVANIA

CITY           SKY/WX    TMP DP  RH WIND       PRES   REMARKS
BRADFORD       CLOUDY    58  54  86 SE8       30.09R
DUBOIS         CLOUDY    57  56  96 SE6       30.07R
CLEARFIELD     CLOUDY    59  56  89 NE8       30.08F
JOHNSTOWN      CLOUDY    59  55  87 S8        30.07R
ALTOONA        CLOUDY    61  59  93 NE6       30.07S
STATE COLLEGE  CLOUDY    59  59 100 CALM      30.08S FOG
WILLIAMSPORT   CLOUDY    64  59  83 SE5       30.07R
SELINSGROVE    CLOUDY    62  58  86 SW3       30.09R
FT INDIANTOWN  CLOUDY    62  62 100 VRB2      30.08S
CAPITAL CITY   CLOUDY    64  59  83 E5        30.07R
HARRISBURG     CLOUDY    64  59  83 VRB5      30.06R FOG
YORK           CLOUDY    64  59  83 E6        30.07R
$$

PAZ038>040-043-044-047-048-054-055-060>062-067>071-011600-
EASTERN PENNSYLVANIA

CITY           SKY/WX    TMP DP  RH WIND       PRES   REMARKS
SCRANTON       CLOUDY    67  55  65 CALM      30.07R
MOUNT POCONO   PTSUNNY   62  53  72 E9        30.09R
ALLENTOWN      MOSUNNY   66  55  67 NE7       30.07R
QUAKERTOWN*    PTSUNNY   66  57  72 NE5       30.07S
READING        PTSUNNY   68  57  68 N7        30.06R
LANCASTER      CLOUDY    63  58  83 CALM      30.07R HAZE
COATESVILLE    CLOUDY    63  57  82 E3        30.08R
POTTSTOWN      CLOUDY    66  57  72 NE6       30.07S
BLUE BELL      PTSUNNY   68  57  68 CALM      30.05S
DOYLESTOWN     MOSUNNY   66  57  72 VRB6      30.05S
WILLOW GROVE   NOT AVBL
NORTH PHILA    CLOUDY    69  55  60 NE9       30.06S
PHILADELPHIA   PTSUNNY   69  57  65 E9        30.05R
$$


USA.gov is the U.S. government's official web portal to all federal, state and local government web resources and services.